Location: Luxembourg
(49.6000°N, 6.1500°W)
Time: 11:07:04
(UTC+01:00)

OTV 5 (USA 277) - Visible Passes

Search period start: 23 January 2018 00:00
Search period end: 02 February 2018 00:00
Orbit: 404 x 417 km, 43.0° (Epoch: 07 September)

Date Brightness Start Highest point End Pass type
(mag) Time Alt. Az. Time Alt. Az. Time Alt. Az.
24 Jan ? 20:00:49 10° S 20:02:26 14° SSE 20:02:26 14° SSE visible
25 Jan ? 19:10:56 10° SSE 19:11:48 11° SSE 19:12:40 10° SE visible
25 Jan ? 20:45:38 10° SW 20:46:37 16° SSW 20:46:37 16° SSW visible
26 Jan ? 19:54:52 10° SW 19:57:27 21° SSE 19:58:01 20° SSE visible
27 Jan ? 19:04:14 10° SSW 19:06:33 17° SSE 19:08:52 10° ESE visible
27 Jan ? 20:40:24 10° WSW 20:42:09 22° SSW 20:42:09 22° SSW visible
28 Jan ? 19:49:29 10° SW 19:52:20 25° S 19:53:32 21° SE visible
29 Jan ? 18:58:39 10° SW 19:01:25 23° S 19:04:10 10° ESE visible
29 Jan ? 20:35:23 10° WSW 20:37:41 23° SSW 20:37:41 23° SSW visible
30 Jan ? 19:44:23 10° WSW 19:47:15 26° S 19:49:06 16° SE visible
30 Jan ? 21:21:50 10° WSW 21:21:52 10° WSW 21:21:52 10° WSW visible
31 Jan ? 18:53:25 10° WSW 18:56:18 26° S 18:59:12 10° ESE visible
31 Jan ? 20:30:36 10° WSW 20:33:04 19° SSW 20:33:20 19° S visible
01 Feb ? 19:39:27 10° WSW 19:42:09 22° SSW 19:44:49 10° SE visible
